Flag for China Weather past 2 weeks in Hangzhou, Zhejiang, China

Now
90 °F

Scattered clouds.


Feels Like: 95 °F
Forecast: 71 / 86 °F
Wind: No wind

Location: Hangzhou Airport

Current Time: Sep 1, 2015 at 2:44:02 PM

Latest Report: Sep 1, 2015 at 2:00 PM


Visibility: 4 mi

Pressure: 29.74 "Hg

Humidity: 52%

Dew point: 70 °F

Location of HangzhouLocation

Historic Weather in Hangzhou — Graph

°F

Hangzhou temperature yesterday

Maximum temperature yesterday: 88 °F (at 12:30 PM)
Minimum temperature yesterday: 72 °F (at 5:30 AM)
Average temperature yesterday: 80 °F

Past Weeks' High & Low Weather Summary

 TemperatureHumidityPressure
High93 °F (Aug 20, 1:00 PM)100% (Aug 20, 5:30 PM)29.86 "Hg (Aug 20, 5:30 PM)
Low70 °F (Aug 25, 2:30 AM)42% (Aug 17, 6:00 PM)29.56 "Hg (Aug 24, 4:30 AM)
Average80 °F79%29.74 "Hg
* Reported Aug 17 1:00 PM — Sep 1 1:30 PM, Hangzhou, Weather by CustomWeather, © 2015

Note: Actual official high and low records may vary slightly from our data, if they occured in-between our weather recording intervals... More about our weather records

Advertising

Hangzhou weather history for previous 24 hours

 ConditionsComfort  
Time TempWeatherWind HumidityBarometerVisibility
1:30 PM
Tue, Sep 1
91 °FScattered clouds.3 mph49%29.77 "Hg4 mi
1:00 PM90 °FScattered clouds.3 mph55%29.77 "Hg3 mi
12:30 PM90 °FScattered clouds.1 mph59%29.77 "Hg3 mi
11:30 AM88 °FHaze.3 mph66%29.77 "Hg3 mi
11:00 AM88 °FHaze.1 mph66%29.80 "Hg3 mi
10:30 AM86 °FHaze.1 mph66%29.80 "Hg3 mi
10:00 AM84 °FHaze.1 mph70%29.80 "Hg3 mi
9:30 AM84 °FHaze.1 mph70%29.80 "Hg2 mi
9:00 AM81 °FFog.1 mph79%29.80 "Hg2 mi
8:30 AM81 °FFog.1 mph79%29.80 "Hg2 mi
8:00 AM79 °FFog.1 mph84%29.80 "Hg1 mi
7:30 AM77 °FFog.3 mph89%29.80 "Hg1 mi
7:00 AM75 °FFog.3 mph94%29.80 "Hg1 mi
6:30 AM75 °FFog.1 mph94%29.80 "Hg1 mi
5:30 AM73 °FFog.3 mph94%29.80 "Hg2 mi
5:00 AM73 °FFog.1 mph94%29.77 "Hg2 mi
4:30 AM73 °FFog.No wind94%29.80 "Hg2 mi
4:00 AM73 °FFog.1 mph94%29.77 "Hg2 mi
3:30 AM75 °FFog.1 mph89%29.77 "Hg2 mi
3:00 AM75 °FFog.3 mph94%29.77 "Hg2 mi
2:30 AM75 °FFog.1 mph94%29.77 "Hg3 mi
2:00 AM75 °FFog.3 mph89%29.77 "Hg3 mi
1:30 AM75 °FClear.1 mph89%29.77 "Hg4 mi
1:00 AM75 °FClear.1 mph89%29.80 "Hg4 mi
12:30 AM75 °FClear.3 mph89%29.80 "Hg4 mi
12:00 AM75 °FClear.3 mph89%29.80 "Hg4 mi
11:30 PM
Mon, Aug 31
77 °FClear.3 mph83%29.80 "Hg4 mi
11:00 PM77 °FClear.3 mph83%29.80 "Hg5 mi
10:30 PM79 °FClear.3 mph79%29.80 "Hg5 mi
10:00 PM79 °FClear.6 mph84%29.80 "Hg5 mi
9:30 PM79 °FClear.6 mph84%29.80 "Hg5 mi
9:00 PM77 °FClear.6 mph89%29.80 "Hg4 mi
8:30 PM77 °FClear.6 mph89%29.80 "Hg5 mi
8:00 PM77 °FClear.6 mph83%29.80 "Hg10 mi
7:30 PM79 °FClear.8 mph79%29.77 "Hg10 mi
7:00 PM79 °FClear.6 mph79%29.77 "Hg10 mi
6:30 PM79 °FClear.6 mph74%29.77 "Hg10 mi
6:00 PM82 °FSunny.6 mph66%29.77 "Hg10 mi
5:30 PM82 °FSunny.8 mph66%29.77 "Hg10 mi
5:00 PM84 °FPassing clouds.6 mph66%29.77 "HgN/A
4:30 PM86 °FScattered clouds.8 mph62%29.77 "HgN/A
4:00 PM86 °FScattered clouds.8 mph59%29.77 "HgN/A
3:30 PM88 °FScattered clouds.8 mph55%29.77 "HgN/A
3:00 PM88 °FScattered clouds.8 mph59%29.77 "HgN/A
2:30 PM88 °FScattered clouds.8 mph59%29.77 "HgN/A
2:00 PM88 °FScattered clouds.8 mph62%29.80 "HgN/A
Weather by CustomWeather, © 2015

See weather overviewHow to use our weather pages